This is the latest recevied weather packets stored in our database for station/object DD3UTS-13. If no packets are shown the sender has not sent any weather packets the latest 10 day(s).
| Time | Temp. | Humidity | Pressure | Rain* | Wind** | Luminosity | Snow |
|---|---|---|---|---|---|---|---|
| 1777744232 | 20.56° C | 35% | 1016.9 hPa | 0 mm | - | 184 W/m² | - |
| 1777743932 | 21.11° C | 35% | 1016.9 hPa | 0 mm | - | 249 W/m² | - |
| 1777743632 | 21.11° C | 35% | 1017 hPa | 0 mm | - | 284 W/m² | - |
| 1777743332 | 21.11° C | 35% | 1017 hPa | 0 mm | - | 302 W/m² | - |
| 1777743033 | 21.11° C | 36% | 1017 hPa | 0 mm | - | 277 W/m² | - |
| 1777742732 | 21.67° C | 36% | 1017 hPa | 0 mm | - | 250 W/m² | - |
| 1777742432 | 22.22° C | 35% | 1017.2 hPa | 0 mm | - | 307 W/m² | - |
| 1777742137 | 22.22° C | 35% | 1017.2 hPa | 0 mm | - | 332 W/m² | - |
| 1777741833 | 22.78° C | 34% | 1017.3 hPa | 0 mm | - | 368 W/m² | - |
| 1777741534 | 22.78° C | 34% | 1017.3 hPa | 0 mm | - | 387 W/m² | - |
| 1777741232 | 23.33° C | 34% | 1017.5 hPa | 0 mm | - | 430 W/m² | - |
| 1777740933 | 23.33° C | 34% | 1017.6 hPa | 0 mm | - | 435 W/m² | - |
| 1777740632 | 23.33° C | 34% | 1017.7 hPa | 0 mm | - | 446 W/m² | - |
| 1777740333 | 23.89° C | 33% | 1017.7 hPa | 0 mm | - | 451 W/m² | - |
| 1777740032 | 23.89° C | 33% | 1017.8 hPa | 0 mm | - | 458 W/m² | - |
| 1777739732 | 24.44° C | 31% | 1017.8 hPa | 0 mm | - | 461 W/m² | - |
| 1777739432 | 24.44° C | 31% | 1017.8 hPa | 0 mm | - | 465 W/m² | - |
| 1777739132 | 25° C | 30% | 1017.9 hPa | 0 mm | - | 468 W/m² | - |
| 1777738832 | 25° C | 26% | 1018 hPa | 0 mm | - | 475 W/m² | - |
| 1777738532 | 25.56° C | 25% | 1018.1 hPa | 0 mm | - | 478 W/m² | - |
| 1777738232 | 25° C | 24% | 1018.1 hPa | 0 mm | - | 481 W/m² | - |
| 1777737931 | 25° C | 24% | 1018.2 hPa | 0 mm | - | 483 W/m² | - |
| 1777737632 | 25° C | 26% | 1018.3 hPa | 0 mm | - | 485 W/m² | - |
| 1777737332 | 25.56° C | 24% | 1018.3 hPa | 0 mm | - | 492 W/m² | - |
| 1777737032 | 25.56° C | 24% | 1018.4 hPa | 0 mm | - | 497 W/m² | - |
* Rain latest 24 hours (hover to see other rain measurements)
** Current wind speed in m/s (hover to see current wind gust speed)